Location: Caixon
(43.4106°N, 0.0273°E)
Time: 22:40:47
(UTC+00:00)

Meteor 1-12 Rocket - Pass Details

Date: 16 October 2021
Orbit: 855 x 926 km, 81.2° (Epoch: 07 December)

Event Time Altitude Azimuth Distance (km) Brightness Sun altitude
Rises 03:47:13 0° 347° (NNW) 3,448 7.4 -27.5°
Reaches altitude 10° 03:49:39 10° 346° (NNW) 2,502 6.6 -27.0°
Enters shadow 03:54:29 62° 315° (NW) 963 4.2 -26.2°
Exits shadow 03:59:06 21° 183° (S) 1,820 5.8 -25.4°
Drops below altitude 10° 04:00:53 10° 180° (S) 2,481 6.5 -25.0°
Sets 04:03:18 0° 178° (S) 3,417 7.3 -24.6°
